Date,TemperatureHighF,TemperatureAvgF,TemperatureLowF,DewpointHighF,DewpointAvgF,DewpointLowF,HumidityHigh,HumidityAvg,HumidityLow,PressureMaxIn,PressureMinIn,WindSpeedMaxMPH,WindSpeedAvgMPH,GustSpeedMaxMPH,PrecipitationSumIn
2013-11-1,56.1,51.2,45.0,53.6,49.2,43.3,95,93,89,30.38,30.09,3,0,3,0.00
2013-11-2,53.4,50.6,46.0,51.7,48.3,43.9,95,92,84,30.28,29.98,6,0,6,0.04
2013-11-3,49.3,45.7,43.0,47.6,43.9,41.1,94,93,92,30.30,30.22,7,0,7,0.17
2013-11-4,50.7,47.7,44.4,49.6,46.4,42.8,96,95,94,30.27,30.19,2,0,2,0.55
2013-11-5,53.8,52.2,50.5,52.6,51.1,49.4,96,96,96,30.36,30.18,6,0,6,0.12
2013-11-6,56.7,54.5,52.7,55.6,53.5,51.5,97,96,96,30.39,30.20,2,0,2,0.00
2013-11-7,55.0,51.3,48.7,54.2,50.2,47.4,97,96,95,30.27,30.05,7,0,7,0.00
2013-11-8,52.0,49.0,45.1,50.8,47.8,43.8,96,96,95,30.31,30.20,0,0,0,0.00
2013-11-9,50.2,46.6,42.4,48.2,45.1,41.1,96,95,93,30.21,30.12,0,0,0,0.00
2013-11-10,58.5,51.6,46.9,53.3,48.3,44.2,94,89,81,30.19,30.11,1,0,1,0.00
2013-11-11,61.3,54.8,47.7,53.6,48.9,45.8,94,81,64,30.19,30.07,4,0,4,0.00
2013-11-12,56.5,53.6,51.1,54.1,51.6,48.7,95,93,77,30.56,30.18,4,0,4,0.00
2013-11-13,53.8,50.1,46.0,51.9,48.3,44.1,95,94,92,30.61,30.43,3,0,3,0.00
2013-11-14,50.2,46.2,43.2,48.7,44.7,41.3,95,94,93,30.43,30.24,2,0,2,0.00
2013-11-15,50.2,45.5,41.2,49.0,44.1,39.6,96,95,94,30.26,29.76,4,0,4,0.00
2013-11-16,50.2,47.9,46.0,49.0,46.4,44.3,96,95,92,30.00,29.75,6,0,6,0.00
2013-11-17,52.3,49.5,47.5,50.6,48.1,46.1,96,95,93,30.12,30.00,6,0,6,0.00
2013-11-18,52.2,50.8,48.9,51.0,49.5,47.2,96,96,94,30.11,29.83,12,1,12,0.00
2013-11-19,52.5,48.7,39.9,51.2,46.0,35.1,96,90,81,30.16,29.82,10,2,10,0.00
2013-11-20,47.5,39.3,32.7,37.4,33.4,29.3,90,80,63,30.49,30.16,8,1,8,0.00
2013-11-21,46.9,34.9,29.3,35.6,29.1,26.1,90,80,57,30.65,30.49,4,0,4,0.00
2013-11-22,49.6,38.3,30.9,36.7,30.1,25.2,83,72,60,30.64,30.40,0,0,0,0.00
2013-11-23,54.5,42.9,34.3,40.8,33.2,27.8,78,69,58,30.42,30.19,0,0,0,0.00
2013-11-24,55.2,45.3,39.4,40.7,34.0,28.5,76,65,53,30.35,30.20,1,0,1,0.00
2013-11-25,55.0,45.8,41.4,44.1,37.3,32.7,83,72,60,30.43,30.34,1,0,1,0.00
2013-11-26,56.1,49.7,42.1,44.0,40.0,34.1,76,69,60,30.35,30.11,5,0,5,0.00
2013-11-27,57.4,48.9,43.9,45.6,39.5,35.4,76,70,61,30.11,30.01,0,0,1,0.00
2013-11-28,51.4,43.8,39.4,43.6,37.6,33.9,87,79,71,30.32,30.08,3,0,3,0.00
2013-11-29,50.5,44.0,37.2,46.7,40.7,33.9,91,88,86,30.49,30.32,4,0,4,0.00
2013-11-30,52.9,47.7,43.2,49.0,44.8,40.6,94,90,84,30.52,30.38,3,0,3,0.00